Weather Roundup
Issued by NWS

Home | Current Version | Previous Version | Text Only | Print | Product List | Glossary On
Versions: 1 2 3 4 5 6 7 8 9 10 11 12 13 14 15 16 17 18 19 20 21 22 23 24 25 26 27 28 29 30 31 32 33 34 35 36 37 38 39 40 41 42 43 44 45 46 47 48 49 50
000
NZUS93 KARX 290659
HRRWXR

CURRENT HOURLY OBSERVATIONS ACROSS
MUCH OF THE UPPER MISSISSIPPI VALLEY
NATIONAL WEATHER SERVICE LA CROSSE WI
200 AM CDT WED JUL 29 2015


...SOUTHEAST MINNESOTA...


CITY           SKY/WX    TMP DP  RH WIND       PRES   REMARKS
ROCHESTER      CLOUDY    65  62  90 W9        29.98F
ROCHESTER/MAYO FAIR      69  60  73 W10       29.97F
WINONA         CLOUDY    73  63  68 NW6       29.93F
AUSTIN         CLOUDY    66  63  88 SW3       29.99R
ALBERT LEA     MOCLDY    66  61  82 W5        30.00S
DODGE CENTER   MOCLDY    64  61  88 W9        29.99R
PRESTON        CLOUDY    69  62  79 NW7       29.99R
OWATONNA       PTCLDY    64  59  82 W8        29.99S
FARIBAULT      PTCLDY    66  61  82 SW5       29.98S
$$

...ELSEWHERE IN MINNESOTA...


CITY           SKY/WX    TMP DP  RH WIND       PRES   REMARKS
MINNEAPOLIS    PTCLDY    70  59  68 SW9       29.93S
INTNL FALLS    MOCLDY    65  49  56 SW22G32   29.58F
DULUTH         CLEAR     67  54  63 SW14G20   29.78F
RED WING       MOCLDY    70  61  73 W6        29.92S
REDWOOD FALLS  CLEAR     66  54  65 W10       29.96F
MANKATO        CLEAR     64  57  77 SW8       29.98S
WORTHINGTON    CLEAR     59  54  82 W7        30.06R
FAIRMONT       CLEAR     64  55  72 W7        30.02R
$$

...SOUTHWEST WISCONSIN...


CITY           SKY/WX    TMP DP  RH WIND       PRES   REMARKS
LA CROSSE      CLOUDY    77  64  64 W10       29.91F
PRAIRIE DU CHI CLOUDY    75  69  80 W3        29.92S
BOSCOBEL       LGT RAIN  75  71  87 S5        29.92F
LONE ROCK      NOT AVBL
PLATTEVILLE    CLOUDY    73  72  95 SW3       29.94S
FORT MC COY    CLOUDY    74  69  85 CALM      29.92S
VIROQUA        CLOUDY    73  73 100 W5        29.94F
WIS DELLS      CLOUDY    75  68  77 SW3       29.91F
$$

...ELSEWHERE IN WISCONSIN...


CITY           SKY/WX    TMP DP  RH WIND       PRES   REMARKS
MILWAUKEE      CLOUDY    76  69  79 SW6       29.90F
MADISON        CLOUDY    78  72  81 SW5       29.90F
GREEN BAY      CLOUDY    72  68  87 CALM      29.86F FOG
EAU CLAIRE     CLOUDY    69  60  73 SW7       29.90F
BLACK RVR FLS  PTSUNNY   75  71  85 W7        29.91S
MEDFORD        CLOUDY    73  68  86 W15G23    29.90S
WAUSAU         CLOUDY    75  71  87 SW8       29.86F
WIS RAPIDS     CLOUDY    75  69  81 W8        29.90F
MARSHFIELD     CLOUDY    75  69  81 W12       29.90S
RICE LAKE      MOCLDY    67  59  74 SW7       29.91S
$$

...NORTHEAST IOWA...


CITY           SKY/WX    TMP DP  RH WIND       PRES   REMARKS
DECORAH        CLOUDY    73  72  94 VRB5      29.96S
MASON CITY     CLOUDY    64  62  93 W9        30.02R
CHARLES CITY   CLOUDY    72  68  88 NW8       29.99S
OELWEIN          N/A     73  72  94 W8        29.97S
$$

...ELSEWHERE IN IOWA...


CITY           SKY/WX    TMP DP  RH WIND       PRES   REMARKS
DES MOINES     CLOUDY    72  69  90 CALM      30.01R
IOWA CITY      LGT RAIN  72  70  93 NW9       29.97R
FORT DODGE     CLOUDY    64  63  94 CALM      30.04S
$$

...NORTHERN ILLINOIS...


CITY           SKY/WX    TMP DP  RH WIND       PRES   REMARKS
CHICAGO-OHARE  LGT RAIN  80  74  81 SW5       29.91F
CHICAGO-MIDWAY LGT RAIN  82  74  76 E8        29.91F
MOLINE         CLOUDY    77  74  90 NW5       29.92R
ROCKFORD       CLOUDY    74  71  91 S3        29.93F
PEORIA         TSTM      75  70  84 VRB7      29.95S
$$

NOTE: "FAIR" INDICATES FEW OR NO CLOUDS BELOW 12,000 FEET WITH NO
SIGNIFICANT WEATHER AND/OR OBSTRUCTIONS TO VISIBILITY. WIND
SPEEDS ARE IN MILES-PER-HOUR.



USA.gov is the U.S. government's official web portal to all federal, state and local government web resources and services.